Regional Weather Roundup
Issued by NWS New Orleans/Baton Rouge, LA

Home | Current Version | Previous Version | Text Only | Print | Product List | Glossary Off
Versions: 1 2 3 4 5 6 7 8 9 10 11 12 13 14 15 16 17 18 19 20 21 22 23 24 25 26 27 28 29 30 31 32 33 34 35 36 37 38 39 40 41 42 43 44 45 46 47 48 49 50

121
ASUS44 KLIX 300905
RWRLIX
NEW ORLEANS REGIONAL WEATHER ROUNDUP
NATIONAL WEATHER SERVICE NEW ORLEANS LA
400 AM CDT TUE SEP 30 2014

NOTE: "FAIR" INDICATES FEW OR NO CLOUDS BELOW 12,000 FEET WITH NO
      SIGNIFICANT WEATHER AND/OR OBSTRUCTIONS TO VISIBILITY.
      SKY/WX - SKY CONDITION AND SIGNIFICANT WEATHER.
      TMP - AIR TEMPERATURE.     DP    - DEWPOINT TEMPERATURE.
      RH  - RELATIVE HUMIDITY.   PRES  - PRESSURE.
      HI  - HEAT INDEX.          WCI   - WIND CHILL INDEX.

*  THESE STATIONS ARE NOT NWS OR FAA STATIONS AND ARE NOT UNDER
   NWS QUALITY CONTROL.

LAZ038-040-048-061>063-065>067-069-301000-
SOUTHEAST LOUISIANA

CITY           SKY/WX    TMP DP  RH WIND       PRES   REMARKS
N.O. AUDUBON   NOT AVBL
N.O. INTL ARPT PTCLDY    74  71  91 CALM      29.86F
N.O. LAKEFRONT CLEAR     78  73  84 NE7       29.87S
N.O. DOWNTOWN*   N/A     77  70  78 CALM      29.87S
SLIDELL        CLEAR     70  67  90 CALM      29.87S
BATON ROUGE    CLEAR     71  69  93 CALM      29.87S
BOOTHVILLE     CLEAR     77  74  90 CALM      29.85F
BELLE CHASSE   CLEAR     71  68  90 CALM      29.86S
BOGALUSA*        N/A     70  67  90 CALM      29.90S FOG
GALLIANO*      NOT AVBL
NEW ROADS*     FOG       70  69  98 CALM      29.88S VSB 3/4
GONZALES*        N/A     70  70 100 CALM      29.87S FOG
HAMMOND*       CLEAR     70  68  94 CALM      29.89S
HOUMA*         CLEAR    N/A N/A N/A CALM      29.86S HAZE
PORT FOURCHON* SUNNY     77  73  88 CALM      29.89S

$$

MSZ070-080>082-301000-
SOUTHERN MISSISSIPPI

CITY           SKY/WX    TMP DP  RH WIND       PRES   REMARKS
MCCOMB         CLEAR     70  66  87 CALM      29.89S
GULFPORT       CLEAR     72  70  93 CALM      29.86S
BILOXI         CLEAR     72  72 100 NE5       29.87S
PASCAGOULA     CLEAR     69  68  96 N3        29.86F FOG

$$

COASTAL OBSERVATIONS
LAKE AND NEARSHORE STATIONS

STATION/POSITION TIME  TEMP    WIND        PRES    WAVE
                       AIR SEA DIR/SP/G            HT/PER
                 (UTC) (F)     (DEG/KT/KT) (MB)    (FT/S)
PASCAGOULA       0900   74      40/  7/  9 1010.6
WAVELAND YACHT   0900   75      50/  6/  6 1010.7
GRAND ISLE       0900   78 80   60/  2/  4 1011.7
SOUTHWEST PASS   0900   79 86  360/  3/  4 1011.0
NEW CANAL        0900   78 77   40/  4/  4 1011.7
SHELL BEACH      0900   78 75   30/  7/  7 1011.0

OFFSHORE STATIONS

STATION/POSITION TIME  TEMP    WIND        PRES    WAVE
                       AIR SEA DIR/SP/G            HT/PER
                 (UTC) (F)     (DEG/KT/KT) (MB)    (FT/S)
64 S DAUPHIN ISL 0756   79 82   60/  8/ 10 1010.6    2/ 4

$$




USA.gov is the U.S. government's official web portal to all federal, state and local government web resources and services.